Location: Newark
(50.0306°N, 2.3272°E)
Time: 14:28:07
(UTC+00:00)

deb Explorer IX - Visible Passes

Search period start: 20 January 2021 00:00
Search period end: 30 January 2021 00:00
Orbit: 536 x 1104 km, 38.8° (Epoch: 19 January)

Date Brightness Start Highest point End Pass type
(mag) Time Alt. Az. Time Alt. Az. Time Alt. Az.
20 Jan ? 18:03:25 10° SSE 18:03:35 10° SSE 18:03:45 10° SSE visible
20 Jan ? 19:45:35 10° SW 19:47:03 15° SSW 19:47:03 15° SSW visible
21 Jan ? 17:38:35 10° SSE 17:39:55 11° SSE 17:41:12 10° SE visible
21 Jan ? 19:21:42 10° SW 19:24:49 20° S 19:24:49 20° S visible
22 Jan ? 17:14:20 10° S 17:16:13 11° SSE 17:18:03 10° SE visible
22 Jan ? 18:57:48 10° SW 19:02:09 21° S 19:02:33 21° SSE visible
23 Jan ? 18:33:53 10° SW 18:38:29 22° S 18:40:16 19° SE visible
23 Jan ? 20:20:06 10° WSW 20:21:31 15° SW 20:21:31 15° SW visible
24 Jan ? 18:09:57 10° SW 18:14:47 23° S 18:17:57 15° SE visible
24 Jan ? 19:56:13 10° WSW 19:59:13 21° SSW 19:59:13 21° SSW visible
25 Jan ? 17:46:01 10° SW 17:51:03 24° S 17:55:34 10° ESE visible
25 Jan ? 19:32:19 10° WSW 19:36:54 25° SSW 19:36:54 25° SSW visible
26 Jan ? 17:22:04 10° SW 17:27:18 25° S 17:32:01 10° ESE visible
26 Jan ? 19:08:24 10° WSW 19:13:28 26° S 19:14:35 25° SSE visible
27 Jan ? 18:44:27 10° WSW 18:49:44 27° S 18:52:17 20° SSE visible
27 Jan ? 20:32:03 10° WSW 20:33:33 14° SW 20:33:33 14° SW visible
28 Jan ? 18:20:30 10° WSW 18:25:59 28° S 18:30:01 14° SE visible
28 Jan ? 20:08:04 10° WSW 20:11:17 17° SSW 20:11:17 17° SSW visible
29 Jan ? 17:56:33 10° WSW 18:02:12 29° S 18:07:15 10° SE visible
29 Jan ? 19:44:05 10° WSW 19:48:07 18° SSW 19:49:04 17° SSW visible
